Terminal Aerodrome Forecast
Issued by NWS

Home | Current Version | Previous Version | Text Only | Print | Product List | Glossary On
Versions: 1 2 3 4 5 6 7 8 9 10 11 12 13 14 15 16 17
000
FTUS43 KLSX 060911 AAA
TAFSUS
TAF AMD
KSUS 060911Z 0609/0706 VRB03KT 5SM BR SCT015 BKN100
      TEMPO 0609/0613 OVC015
     FM061300 31007KT P6SM OVC008
     FM061700 31011G18KT P6SM OVC015
     FM062000 30012G18KT P6SM SCT110
     FM070000 30007KT P6SM SCT200=

USA.gov is the U.S. government's official web portal to all federal, state and local government web resources and services.